OBJECT C, 68693

Orbit data source: Space-Track

You're viewing an Uncataloged Satellite

Recently launched and/or uncataloged satellites may have evolving metadata. Metadata may include but not limited to: Owner, Maufacturer, Bus, Motor, and Mission.

OBJECT C, 68693 is a satellite owned by Changguang WJ (CN) in SSO that was launched on Tue, 14 Apr 2026 UTC via a LIJIAN-1 launch vehicle from the Jiuquan Satellite Launch Center, China (JSC). Unknown objects in Earth's orbit typically refer to objects detected orbiting the Earth but have not yet been identified or cataloged. These objects could be anything from previously untracked satellites, spent rocket stages, debris from satellite collisions, or even natural meteoroids temporarily captured by Earth's gravity.

Loading next visibility...
Identifier
68693, 2026-080C
Orbit
SSO
Country
Flag of CNCN / PRC
Related business
Manufacturer
Changguang WJ
Mission
Operational spacecraft
Bus & Motor
JL-1GF07, Unknown motor
Mass
~50 kg wet, ~50 kg dry
Launch date (UTC)
2026-04-14 (1 day ago)
Launch vehicle
LIJIAN-1
Launch site
Jiuquan Satellite Launch Center, China (JSC)
Object type
Unknown
Shape & HBR
Unknown
Radar Cross Section
RCS unknown

Expand to show TLE details & history
Last TLE update: 19 hours ago

TLE from 19 hours ago
0 OBJECT C
1 68693U 26080C   26105.07434472  .00000506  00000-0  35821-4 0  9997
2 68693  97.6624 180.7182 0013498 278.6118  81.3581 15.09294853   140
Epoch: 2026-04-15T01:47Z
TLE epoch observation values (Epoch: 2026-04-15T01:47:03.383Z)
Latitude
-0.00006°
Longitude
-49.28735°
Altitude
540.031 km
Speed
7.593 km/s
True Right ascension
12h 02m 52s
True Declination
0° 00' 00"
Sunlit
Object was in full shadow at epoch
Visualization orbit readout
Latitude
Unknown
Longitude
Unknown
Altitude
Unknown
Speed
Unknown
Apparent Right ascension
Unknown
Apparent Declination
Unknown
Sunlit
N/A
Visualization observer readout
Local Sidereal Time
03:00:40
Azimuth
Unknown
Elevation
Unknown
Doppler factor
Unknown
Orbital elements
Apogee altitude
544.676 km
Perigee altitude
526.013 km
Semi-major axis
6,913.482 km
Eccentricity
0.00135
Inclination
97.6624°
RAAN
180.7182°
Arg. of periapsis
278.6118°
True anomaly
81.51106°
Mean anomaly
81.3581°
Eccentric anomaly
81.43458°
Mean motion
3.7757 °/min
Orbital period
95.35 mins
BSTAR
0.000035821
Loading maneuver chart data...
Computing Atmospheric mass density...
Loading historical data...
Loading historical data...
Loading historical data...
Loading historical data...
Loading historical data...
Loading historical data...
Loading historical data...

Documentation

Showing up to 5 results
|